Koushinmaru No.5 — JL6695 — position and weather

sailwx.info

Track history (hours):
 
Tides and Currents Weather Stations Pressure Air Temp Water Temp Dewpoint Dewpoint Depression Visibility Wind Speed Wind Dir Waves Ship Positions

Koushinmaru No.5

Last reported at 2014-Jul-29 19:26 UTC. Time now 2014-Aug-02 08:41 UTC.
Position N 36°42' E 141°04'.

Length 75 m; draft 5 m.

Type: Cargo ship. MMSI: 431301703.

Date/timePositionNaut miles runAvg speedWind from/ knotsBaromVisibWave heightAir tempDewpointWater temp
2014-Jul-29 19:26N 36°42' E 141°04'3411.6
2014-Jul-29 16:33N 36°09' E 141°00'1211.6
2014-Jul-29 15:32N 35°57' E 140°58'1311.9
2014-Jul-29 14:27N 35°44' E 140°56'1212.0
2014-Jul-29 13:27N 35°34' E 140°49'1112.2
2014-Jul-29 12:33N 35°25' E 140°41'1312.7
2014-Jul-29 11:32N 35°15' E 140°31'1514.3
2014-Jul-29 10:28N 35°05' E 140°17'1213.2
2014-Jul-29 09:32N 34°58' E 140°04'1411.4
2014-Jul-29 08:19N 34°53' E 139°49'8 9.9
2014-Jul-29 07:33N 34°59' E 139°43'1211.7
2014-Jul-29 06:33N 35°11' E 139°46'1110.7
2014-Jul-29 05:33N 35°21' E 139°42'1110.8
2014-Jul-29 04:33N 35°30' E 139°51'1110.8
2014-Jul-29 03:33N 35°39' E 139°58'3 0.1
2014-Jul-28 07:22N 35°41' E 139°57'0 0.6
2014-Jul-28 06:33N 35°41' E 139°57'6 6.3
2014-Jul-28 05:34N 35°35' E 139°56'1111.4
2014-Jul-28 04:33N 35°25' E 139°48'1010.2
2014-Jul-28 03:34N 35°15' E 139°47'1110.9
2014-Jul-28 02:33N 35°05' E 139°42'1211.8
2014-Jul-28 01:32N 34°58' E 139°30'  
2014-Jul-25 17:32N 34°01' E 132°37'10611.7
2014-Jul-25 08:27N 34°40' E 134°37'14 0.4
2014-Jul-23 17:16N 34°37' E 134°54'7 9.4
2014-Jul-23 16:31N 34°37' E 135°03'8 8.7
2014-Jul-23 15:33N 34°28' E 135°04'1110.6
2014-Jul-23 14:33N 34°19' E 134°60'1110.7
2014-Jul-23 13:33N 34°08' E 135°01'  
Track history (hours):
 
Tides and Currents Weather Stations Pressure Air Temp Water Temp Dewpoint Dewpoint Depression Visibility Wind Speed Wind Dir Waves Ship Positions

Koushinmaru No.5

Last reported at 2014-Jul-29 19:26 UTC. Time now 2014-Aug-02 08:41 UTC.
Position N 36°42' E 141°04'.

Length 75 m; draft 5 m.

Type: Cargo ship. MMSI: 431301703.

Date/timePositionNaut miles runAvg speedWind from/ knotsBaromVisibWave heightAir tempDewpointWater temp
2014-Jul-29 19:26N 36°42' E 141°04'3411.6
2014-Jul-29 16:33N 36°09' E 141°00'1211.6
2014-Jul-29 15:32N 35°57' E 140°58'1311.9
2014-Jul-29 14:27N 35°44' E 140°56'1212.0
2014-Jul-29 13:27N 35°34' E 140°49'1112.2
2014-Jul-29 12:33N 35°25' E 140°41'1312.7
2014-Jul-29 11:32N 35°15' E 140°31'1514.3
2014-Jul-29 10:28N 35°05' E 140°17'1213.2
2014-Jul-29 09:32N 34°58' E 140°04'1411.4
2014-Jul-29 08:19N 34°53' E 139°49'8 9.9
2014-Jul-29 07:33N 34°59' E 139°43'1211.7
2014-Jul-29 06:33N 35°11' E 139°46'1110.7
2014-Jul-29 05:33N 35°21' E 139°42'1110.8
2014-Jul-29 04:33N 35°30' E 139°51'1110.8
2014-Jul-29 03:33N 35°39' E 139°58'3 0.1
2014-Jul-28 07:22N 35°41' E 139°57'0 0.6
2014-Jul-28 06:33N 35°41' E 139°57'6 6.3
2014-Jul-28 05:34N 35°35' E 139°56'1111.4
2014-Jul-28 04:33N 35°25' E 139°48'1010.2
2014-Jul-28 03:34N 35°15' E 139°47'1110.9
2014-Jul-28 02:33N 35°05' E 139°42'1211.8
2014-Jul-28 01:32N 34°58' E 139°30'  
2014-Jul-25 17:32N 34°01' E 132°37'10611.7
2014-Jul-25 08:27N 34°40' E 134°37'14 0.4
2014-Jul-23 17:16N 34°37' E 134°54'7 9.4
2014-Jul-23 16:31N 34°37' E 135°03'8 8.7
2014-Jul-23 15:33N 34°28' E 135°04'1110.6
2014-Jul-23 14:33N 34°19' E 134°60'1110.7
2014-Jul-23 13:33N 34°08' E 135°01'  

Dump ship's entire track history